Location: Asar Burnu
(36.5203°N, 30.5523°E)
Time: 22:42:19
(UTC+00:00)

Meteor 2-21 - Pass Details

Date: 04 August 2024
Orbit: 934 x 966 km, 82.5° (Epoch: 18 September)

Event Time Altitude Azimuth Distance (km) Brightness Sun altitude
Rises 20:08:37 0° 353° (N) 3,659 8.4 -30.0°
Reaches altitude 10° 20:11:08 10° 355° (N) 2,710 7.6 -30.3°
Enters shadow 20:16:49 74° 22° (NNE) 1,005 4.5 -30.9°
